{"data":{"norad_id":46082,"intl_designator":"2020-055BH","name":"STARLINK-1578","alt_names":[],"object_type":"PAYLOAD","status":"ACTIVE","operator":null,"country":"US","launch_date":"2020-08-07","launch_site_code":"AFETR","launch_vehicle":null,"mission":null,"orbit_class":"UNKNOWN","rcs_meters":null,"size_class":null,"mass_kg":null,"dimensions":null,"purposes":["comms"],"wikipedia_slug":null,"has_3d_model":false,"image_url":null,"decayed_at":null,"tle_current":{"epoch":"2026-09-20T00:15:31.963968Z","epoch_age_seconds":50085,"freshness":"FRESH","line1":"1 46082U 20055BH  26263.01078662  .00000354  00000+0  23178-4 0  9997","line2":"2 46082  53.1598 277.3247 0001161 105.0506 255.0624 15.31699553339007","mean_motion":15.31699553,"eccentricity":0.0001161,"inclination_deg":53.1598,"raan_deg":277.3247,"arg_perigee_deg":105.0506,"mean_anomaly_deg":255.0624,"bstar":2.3178e-5,"rev_number":33900,"period_min":94.01321539721,"perigee_km":469.94617293586,"apogee_km":471.53648248356,"semimajor_km":6848.8783277097,"source":"CELESTRAK","updated_at":"2026-09-20T09:00:38.466302Z"}}}